User: anonymous   Login
Location: Saint-Palais-sur-Mer
(45.6429°N, 1.0859°W)
Time: 02:10:32
(UTC+02:00)
Language:

QB50P2 - Orbit

View from above orbital plane
View from above orbital plane
View from above satellite
View from above satellite

Ground track
Ground track

The orbit data is extracted from the following two-line orbital elements,

1 40032U 14033Y   24109.40099912  .00013268  00000-0  11469-2 0  9993
2 40032  98.0015  60.3400 0009778   7.2861 352.8500 14.97296834533728
Epoch (UTC): 18 April 2024 09:37:26
Eccentricity: 0.0009778
inclination: 98.0015°
perigee height: 568 km
apogee height: 582 km
right ascension of ascending node: 60.3400°
argument of perigee: 7.2861°
revolutions per day: 14.97296834
mean anomaly at epoch: 352.8500°
orbit number at epoch: 53372

The dashed part of the orbit path shows where the satellite is in the earth's shadow,  

DLR